• In Hungary
  • List of Countries
  • For 7 days
  • Water Temperature
  • Satellite Maps
  • Weather Map
  • News
  • Weather Widgets
  • user-avatar
    Login

    Hourly Weather Ghazni

    Today, 23 May, Wednesday

    Time Temperature Precipitation Wind Pressure Humidity
    00:00 +16°C° 0 mm 2 mps 588 mmHg 26%
    01:00 +15°C° 0 mm 2 mps 587 mmHg 28%
    02:00 +14°C° 0 mm 2 mps 587 mmHg 31%
    03:00 +13°C° 0 mm 3 mps 587 mmHg 34%
    04:00 +12°C° 0 mm 3 mps 587 mmHg 36%
    05:00 +12°C° 0 mm 4 mps 586 mmHg 39%
    06:00 +13°C° 0 mm 4 mps 587 mmHg 37%
    07:00 +14°C° 0 mm 4 mps 587 mmHg 35%
    08:00 +14°C° 0 mm 3 mps 588 mmHg 33%
    09:00 +17°C° 0 mm 3 mps 588 mmHg 28%
    10:00 +18°C° 0 mm 2 mps 588 mmHg 24%
    11:00 +19°C° 0 mm 2 mps 589 mmHg 20%
    12:00 +20°C° 0 mm 2 mps 589 mmHg 18%
    13:00 +21°C° 0 mm 2 mps 589 mmHg 16%
    14:00 +23°C° 0 mm 2 mps 589 mmHg 14%
    15:00 +23°C° 0 mm 2 mps 588 mmHg 14%
    16:00 +23°C° 0 mm 2 mps 588 mmHg 14%
    17:00 +23°C° 0 mm 2 mps 588 mmHg 14%
    18:00 +21°C° 0 mm 3 mps 588 mmHg 16%
    19:00 +21°C° 0 mm 3 mps 588 mmHg 18%
    20:00 +20°C° 0 mm 4 mps 587 mmHg 20%
    21:00 +19°C° 0 mm 4 mps 587 mmHg 23%
    22:00 +18°C° 0 mm 4 mps 587 mmHg 25%
    23:00 +17°C° 0 mm 5 mps 587 mmHg 27%

    Tomorrow, 24 May, Thursday

    Time Temperature Precipitation Wind Pressure Humidity
    00:00 +16°C° 0 mm 5 mps 587 mmHg 29%
    01:00 +15°C° 0 mm 4 mps 586 mmHg 31%
    02:00 +14°C° 0 mm 4 mps 586 mmHg 33%
    03:00 +14°C° 0 mm 4 mps 586 mmHg 35%
    04:00 +13°C° 0 mm 3 mps 585 mmHg 36%
    05:00 +13°C° 0 mm 3 mps 585 mmHg 38%
    06:00 +13°C° 0 mm 3 mps 586 mmHg 35%
    07:00 +14°C° 0 mm 3 mps 586 mmHg 32%
    08:00 +16°C° 0 mm 3 mps 587 mmHg 29%
    09:00 +18°C° 0 mm 3 mps 587 mmHg 26%
    10:00 +19°C° 0 mm 2 mps 587 mmHg 23%
    11:00 +20°C° 0 mm 2 mps 588 mmHg 19%
    12:00 +21°C° 0 mm 2 mps 588 mmHg 18%
    13:00 +23°C° 0 mm 2 mps 588 mmHg 16%
    14:00 +24°C° 0 mm 2 mps 588 mmHg 14%
    15:00 +24°C° 0 mm 3 mps 587 mmHg 14%
    16:00 +24°C° 0 mm 3 mps 587 mmHg 13%
    17:00 +24°C° 0 mm 3 mps 587 mmHg 13%
    18:00 +24°C° 0 mm 3 mps 587 mmHg 14%
    19:00 +22°C° 0 mm 3 mps 587 mmHg 15%
    20:00 +21°C° 0 mm 3 mps 587 mmHg 17%
    21:00 +20°C° 0 mm 3 mps 587 mmHg 19%
    22:00 +20°C° 0 mm 3 mps 587 mmHg 22%
    23:00 +19°C° 0 mm 3 mps 587 mmHg 25%

    Day after tomorrow, 25 May, Friday

    Time Temperature Precipitation Wind Pressure Humidity
    00:00 +18°C° 0 mm 3 mps 586 mmHg 27%
    01:00 +17°C° 0 mm 2 mps 586 mmHg 29%
    02:00 +16°C° 0 mm 2 mps 586 mmHg 31%
    03:00 +16°C° 0 mm 2 mps 585 mmHg 32%
    04:00 +15°C° 0 mm 2 mps 585 mmHg 33%
    05:00 +15°C° 0 mm 2 mps 585 mmHg 34%
    06:00 +16°C° 0 mm 2 mps 586 mmHg 31%
    07:00 +17°C° 0 mm 2 mps 586 mmHg 28%
    08:00 +18°C° 0 mm 2 mps 587 mmHg 25%
    09:00 +19°C° 0 mm 2 mps 588 mmHg 23%
    10:00 +20°C° 0 mm 2 mps 588 mmHg 20%
    11:00 +21°C° 0 mm 2 mps 589 mmHg 17%
    12:00 +22°C° 0 mm 3 mps 589 mmHg 16%
    13:00 +23°C° 0 mm 4 mps 589 mmHg 15%
    14:00 +25°C° 0 mm 5 mps 589 mmHg 13%
    15:00 +24°C° 0 mm 6 mps 589 mmHg 13%
    16:00 +26°C° 0 mm 6 mps 588 mmHg 12%
    17:00 +26°C° 0 mm 7 mps 588 mmHg 12%
    18:00 +24°C° 0 mm 6 mps 588 mmHg 13%
    19:00 +22°C° 0 mm 6 mps 588 mmHg 14%
    20:00 +21°C° 0 mm 6 mps 588 mmHg 15%
    21:00 +20°C° 0 mm 5 mps 587 mmHg 17%
    22:00 +20°C° 0 mm 4 mps 587 mmHg 19%
    23:00 +19°C° 0 mm 3 mps 587 mmHg 22%

    26 May, Saturday

    Time Temperature Precipitation Wind Pressure Humidity
    00:00 +18°C° 0 mm 3 mps 587 mmHg 23%
    01:00 +18°C° 0 mm 3 mps 587 mmHg 25%
    02:00 +17°C° 0 mm 3 mps 586 mmHg 27%
    03:00 +16°C° 0 mm 3 mps 586 mmHg 28%
    04:00 +16°C° 0 mm 2 mps 585 mmHg 30%
    05:00 +15°C° 0 mm 2 mps 585 mmHg 32%
    06:00 +16°C° 0 mm 2 mps 586 mmHg 29%
    07:00 +17°C° 0 mm 2 mps 586 mmHg 27%
    08:00 +19°C° 0 mm 1 mps 587 mmHg 25%
    09:00 +20°C° 0 mm 1 mps 587 mmHg 23%
    10:00 +21°C° 0 mm 1 mps 588 mmHg 20%
    11:00 +22°C° 0 mm 1 mps 588 mmHg 18%
    12:00 +23°C° 0 mm 1 mps 588 mmHg 17%
    13:00 +24°C° 0 mm 2 mps 588 mmHg 15%
    14:00 +25°C° 0 mm 2 mps 588 mmHg 13%
    15:00 +25°C° 0 mm 2 mps 588 mmHg 13%
    16:00 +26°C° 0 mm 3 mps 588 mmHg 12%
    17:00 +26°C° 0 mm 3 mps 588 mmHg 11%
    18:00 +25°C° 0 mm 3 mps 588 mmHg 13%
    19:00 +24°C° 0 mm 3 mps 588 mmHg 14%
    20:00 +24°C° 0 mm 3 mps 588 mmHg 15%
    21:00 +22°C° 0 mm 3 mps 588 mmHg 17%
    22:00 +21°C° 0 mm 3 mps 588 mmHg 19%
    23:00 +20°C° 0 mm 3 mps 587 mmHg 21%

    27 May, Sunday

    Time Temperature Precipitation Wind Pressure Humidity
    00:00 +19°C° 0 mm 2 mps 587 mmHg 23%
    01:00 +18°C° 0 mm 2 mps 587 mmHg 25%
    02:00 +18°C° 0 mm 2 mps 586 mmHg 28%
    03:00 +17°C° 0 mm 2 mps 586 mmHg 29%
    04:00 +17°C° 0 mm 2 mps 586 mmHg 31%
    05:00 +16°C° 0 mm 2 mps 586 mmHg 32%
    06:00 +17°C° 0 mm 2 mps 586 mmHg 30%
    07:00 +19°C° 0 mm 2 mps 587 mmHg 28%
    08:00 +20°C° 0 mm 2 mps 588 mmHg 26%
    09:00 +21°C° 0 mm 3 mps 588 mmHg 23%
    10:00 +22°C° 0 mm 3 mps 589 mmHg 19%
    11:00 +24°C° 0 mm 3 mps 589 mmHg 15%
    12:00 +25°C° 0 mm 3 mps 589 mmHg 14%
    13:00 +26°C° 0 mm 3 mps 589 mmHg 12%
    14:00 +27°C° 0 mm 3 mps 588 mmHg 11%
    15:00 +27°C° 0 mm 3 mps 588 mmHg 11%
    16:00 +28°C° 0 mm 3 mps 588 mmHg 11%
    17:00 +28°C° 0 mm 3 mps 588 mmHg 10%
    18:00 +27°C° 0 mm 3 mps 588 mmHg 12%
    19:00 +26°C° 0 mm 3 mps 588 mmHg 14%
    20:00 +25°C° 0 mm 4 mps 588 mmHg 15%
    21:00 +23°C° 0 mm 4 mps 588 mmHg 17%
    22:00 +22°C° 0 mm 4 mps 588 mmHg 19%
    23:00 +21°C° 0 mm 5 mps 588 mmHg 21%

    28 May, Monday

    Time Temperature Precipitation Wind Pressure Humidity
    00:00 +20°C° 0 mm 4 mps 587 mmHg 23%
    01:00 +19°C° 0 mm 4 mps 587 mmHg 25%
    02:00 +18°C° 0 mm 4 mps 586 mmHg 27%
    03:00 +17°C° 0 mm 4 mps 586 mmHg 29%
    04:00 +17°C° 0 mm 4 mps 586 mmHg 31%
    05:00 +15°C° 0 mm 4 mps 585 mmHg 32%
    06:00 +17°C° 0 mm 4 mps 586 mmHg 28%
    07:00 +18°C° 0 mm 4 mps 587 mmHg 24%
    08:00 +19°C° 0 mm 5 mps 587 mmHg 21%
    09:00 +20°C° 0 mm 5 mps 588 mmHg 19%
    10:00 +22°C° 0 mm 5 mps 588 mmHg 17%
    11:00 +23°C° 0 mm 5 mps 588 mmHg 15%
    12:00 +25°C° 0 mm 5 mps 588 mmHg 15%
    13:00 +26°C° 0 mm 5 mps 587 mmHg 15%
    14:00 +27°C° 0 mm 5 mps 587 mmHg 14%
    15:00 +27°C° 0 mm 5 mps 587 mmHg 15%
    16:00 +27°C° 0 mm 4 mps 587 mmHg 15%
    17:00 +27°C° 0 mm 4 mps 586 mmHg 15%
    18:00 +26°C° 0 mm 5 mps 586 mmHg 18%
    19:00 +25°C° 0 mm 5 mps 586 mmHg 20%
    20:00 +22°C° 0 mm 5 mps 586 mmHg 22%
    21:00 +22°C° 0 mm 5 mps 585 mmHg 25%
    22:00 +21°C° 0 mm 5 mps 585 mmHg 27%
    23:00 +20°C° 0 mm 4 mps 585 mmHg 30%
    Show more